Regional Weather Roundup
Issued by NWS

Home | Current Version | Previous Version | Text Only | Print | Product List | Glossary On
Versions: 1 2 3 4 5 6 7 8 9 10 11 12 13 14 15 16 17 18 19 20 21 22 23 24 25 26 27
000
ASUS44 KLIX 212213
RWRLA
LOUISIANA WEATHER ROUNDUP
NATIONAL WEATHER SERVICE NEW ORLEANS LA
400 PM CST TUE FEB 21 2017

NOTE: "FAIR" INDICATES FEW OR NO CLOUDS BELOW 12,000 FEET WITH NO
      SIGNIFICANT WEATHER AND/OR OBSTRUCTIONS TO VISIBILITY.
      SKY/WX - SKY CONDITION AND SIGNIFICANT WEATHER.
      TMP - AIR TEMPERATURE.    DP   - DEWPOINT TEMPERATURE.
      RH  - RELATIVE HUMIDITY.  PRES - PRESSURE.
      HX  - HEAT INDEX.         WCI  - WIND CHILL INDEX.

*  THESE STATIONS ARE NOT NWS OR FAA STATIONS AND ARE NOT UNDER
   NWS QUALITY CONTROL.

LAZ040-048-061>063-065-066-069-212300-
SOUTHEAST LOUISIANA

CITY           SKY/WX    TMP DP  RH WIND       PRES   REMARKS
N.O. AUDUBON   NOT AVBL
N.O. INTL ARPT PTSUNNY   71  53  52 CALM      29.84F
N.O. LAKEFRONT SUNNY     70  56  61 CALM      29.85F
N.O. DOWNTOWN* NOT AVBL
RESERVE*       LGT RAIN  62  57  82 W6        29.86S
SLIDELL        SUNNY     71  56  58 CALM      29.83F
BATON ROUGE    SUNNY     66  51  58 W8        29.84F
BOOTHVILLE     MOSUNNY   65  58  78 CALM      29.86F
BELLE CHASSE   PTSUNNY   72  51  47 VRB5      29.83F
BOGALUSA*      MOCLDY    72  54  53 N6        29.85S
GALLIANO*      MOCLDY    71  56  59 SW8       29.85S
NEW ROADS*     FAIR      66  52  62 CALM      29.85S
GONZALES*      MOCLDY    61  55  82 CALM      29.84F
HAMMOND*       PTSUNNY   72  48  43 W7        29.84S
HOUMA*         NOT AVBL
PORT FOURCHON* CLEAR     68  57  68 W9        29.86S

$$

LAZ041-044-053-054-212300-
SOUTHWEST LOUISIANA

CITY           SKY/WX    TMP DP  RH WIND       PRES   REMARKS
LAKE CHARLES   MOSUNNY   70  54  56 CALM      29.84F
LAFAYETTE      CLOUDY    69  55  60 N3        29.84F
PATTERSON      CLOUDY    63  53  70 CALM      29.86F
SALT POINT       N/A     61  56  83 SE5       29.85F
NEW IBERIA     CLOUDY    68  53  58 CALM      29.84F
CHENAULT AIRPK MOSUNNY   72  54  53 SW3       29.84F

$$

LAZ027-028-212300-
CENTRAL LOUISIANA

CITY           SKY/WX    TMP DP  RH WIND       PRES   REMARKS
FORT POLK      SUNNY     71  53  51 W12       29.83F
ALEXANDRIA INT PTSUNNY   69  54  58 W6        29.81F
ALEXANDRIA     MOSUNNY   69  52  54 CALM      29.82F

$$

LAZ001-002-212300-
NORTHWEST LOUISIANA

CITY           SKY/WX    TMP DP  RH WIND       PRES   REMARKS
SHREVEPORT     CLOUDY    68  54  60 NW12      29.84S
BARKSDALE AFB  CLOUDY    66  55  68 N8        29.85S
DTN SHREVEPORT CLOUDY    67  54  63 NW10      29.85S

$$

LAZ014-016-212300-
NORTHEAST LOUISIANA

CITY           SKY/WX    TMP DP  RH WIND       PRES   REMARKS
MONROE         MOSUNNY   68  55  63 SW6       29.84S
TALLULAH       SUNNY     69  51  52 S3        29.84R

$$





USA.gov is the U.S. government's official web portal to all federal, state and local government web resources and services.